STARLINK-5433, 54793

Orbit data source: Space-Track

STARLINK-5433, 54793 is a payload satellite owned by SpaceX/Seattle (US) in LEO that was launched on Sat, 17 Dec 2022 UTC via an FALCON 9 launch vehicle from the Air Force Eastern Test Range (AFETR). Payload-class satellites include a variety of spacecraft equipped with specific instruments for various scientific and technological missions. These include communications satellites like Starlink; space stations such as the ISS; scientific satellites like the Hubble; Earth observation satellites from companies like Planet Labs, Umbra, and HawkEye 360; GPS; miniature CubeSats for education and research; and military/defense satellites.

Loading next visibility...
Identifier
54793, 2022-175AM
Orbit
LEO
Last TLE update
16 hours ago
Origin
Manufacturer
SpaceX/Seattle
Mission
Operational Commercial Communications
Bus & Motor
STARLINK, Unknown motor
Mass
305 kg wet, ~290 kg dry
Launch date (UTC)
2022-12-17 (2 years ago)
Launch vehicle
FALCON 9
Launch site
Air Force Eastern Test Range (AFETR)
Object type
Payload
Rocket body
Debris
Shape & HBR
Box + 1 Pan, 8.86 m
Radar Cross Section
13.562 m², Large (>1 m²)

Expand to show TLE details & history

TLE from 16 hours ago
0 STARLINK-5433
1 54793U 22175AM  25130.46580720  .00006853  00000-0  44841-3 0  9994
2 54793  53.2179 300.3559 0001380  85.4948 274.6202 15.08828445134491
Epoch: 2025-05-10T11:10Z
Definitive object data (Epoch: 2025-05-10T11:10:45.742Z)
Latitude
0.00002°
Longitude
-95.84188°
Altitude
540.599 km
Speed
7.593 km/s
True Right ascension
20h 01m 25s
True Declination
0° 00' 00"
Sunlit
Object was in daylight at TLE epoch
Visualization TLE readout
Latitude
-46.88027°
Longitude
-151.32231°
Altitude
556.609 km
Speed
7.583 km/s
Apparent Right ascension
19h 45m 47s
Apparent Declination
-56° 01' 34"
Sunlit
Object is in full shadow
Visualization observer readout
Local Sidereal Time
11:03:24
Azimuth
133.505° SE
Elevation
-54.198°
Doppler factor
1
Orbital elements
Apogee altitude
540.978 km
Perigee altitude
539.069 km
Semi-major axis
6,918.161 km
Eccentricity
0.000138
Inclination
53.2179°
RAAN
300.3559°
Arg. of periapsis
85.4948°
True anomaly
274.60444°
Mean anomaly
274.6202°
Eccentric anomaly
274.61232°
Mean motion
3.77187 °/min
BSTAR
0.00044841
Orbital period
95.44 mins
Loading maneuver chart data...
Loading SW <> Apogee altitude chart data...
Loading historical data...
Loading historical data...
Loading historical data...
Loading historical data...
Loading historical data...
Loading historical data...
Loading historical data...

STARLINK-5433 Visibility forecast

Observer location: undefined°, undefined°

Span
Click to sort rows by Start time (UTC) header in descending order
Start Az.
Max El. time (UTC)
Max El. Az.
Max El.
End time (UTC)
End Az.
5 mins2025-05-11 12:46:17.212Z169.41° S2025-05-11 12:48:17.212Z133.649° SE20.055°2025-05-11 12:51:17.212Z81.332° E
6 mins2025-05-11 14:25:17.212Z256.345° W2025-05-11 14:27:17.212Z306.684° NW37.606°2025-05-11 14:31:17.212Z41.076° NE
5 mins2025-05-11 19:27:17.212Z350.23° N2025-05-11 19:29:17.212Z38.311° NE24.121°2025-05-11 19:32:17.212Z86.214° E
6 mins2025-05-11 21:06:17.212Z291.699° WNW2025-05-11 21:08:17.212Z231.872° WSW38.653°2025-05-11 21:12:17.212Z148.124° SSE
|